Location: Kerguer�zec
(48.4509°N, 4.7600°W)
Time: 09:58:32
(UTC+00:00)

Cosmos 2278 - Pass Details

Date: 09 April 2020
Orbit: 839 x 853 km, 71.1° (Epoch: 06 June)

Event Time Altitude Azimuth Distance (km) Brightness Sun altitude
Rises 22:06:11 0° 332° (NNW) 3,406 8.1 -26.3°
Reaches altitude 10° 22:08:38 10° 333° (NNW) 2,468 7.1 -26.5°
Maximum altitude 22:14:19 86° 62° (ENE) 851 3.6 -27.1°
Enters shadow 22:14:29 84° 116° (ESE) 854 3.5 -27.1°
